Dewpoint
0 1 1 2 3 5 5 5 5 5 5 6 6 6 6 7 7 7 7 7 7 7 7 7 7 7 7 7 7 6 6 6 6 6 6 6 5 4 5 6 7 7 7 7 7 7 5 5 5 4 3 -5
-3 -3 -2 -2 -0 1 2 2 2 3 4 5 6 5 5 6 6 7 7 7 7 6 7 7 7 7 7 7 7 6 6 6 6 6 5 6 5 3 4 5 6 7 7 7 7 7 6 5 5 4 4 -4
-7 -8 -7 -6 -4 -3 -2 -2 -2 -1 1 2 4 5 4 4 5 6 6 6 6 6 6 7 7 7 7 7 7 6 6 6 6 5 5 5 6 4 4 4 5 7 7 7 7 7 6 5 5 4 4 1
-11 -12 -12 -10 -8 -8 -7 -6 -6 -6 -4 -2 1 2 2 3 3 3 4 5 5 6 6 6 6 7 6 7 7 7 6 6 6 6 5 5 6 5 5 4 4 6 6 7 7 7 6 6 5 5 4 3
-14 -14 -14 -13 -13 -12 -12 -11 -10 -10 -8 -8 -6 -4 -2 -1 -1 -1 0 2 2 3 4 4 5 6 6 6 6 7 6 6 6 6 6 5 5 6 5 4 4 5 6 6 6 6 7 6 5 5 4 3
-17 -16 -15 -15 -15 -15 -15 -15 -14 -13 -12 -12 -11 -9 -9 -7 -7 -8 -7 -5 -3 -2 -0 1 2 4 5 5 6 6 6 6 6 6 6 5 5 5 5 5 5 5 5 6 6 6 6 6 6 5 4 3
-17 -17 -17 -17 -17 -17 -17 -17 -17 -16 -16 -16 -16 -13 -12 -12 -12 -14 -15 -14 -13 -10 -7 -4 -1 0 2 3 4 5 6 6 6 6 6 5 5 5 5 5 5 5 5 5 5 6 6 6 6 5 4 3
-17 -17 -17 -17 -17 -17 -17 -18 -18 -18 -18 -17 -18 -18 -16 -15 -15 -15 -14 -15 -18 -19 -16 -10 -6 -2 -1 0 1 2 3 4 5 6 6 6 5 4 4 4 5 4 4 5 5 5 6 6 6 5 5 4
-17 -17 -17 -17 -17 -18 -17 -18 -18 -18 -18 -19 -18 -19 -18 -18 -18 -17 -14 -11 -13 -15 -19 -19 -14 -8 -5 -3 -2 -2 -1 1 3 4 5 6 5 5 4 4 5 5 4 4 4 4 5 6 6 5 5 4
-17 -17 -17 -17 -17 -17 -18 -17 -18 -19 -18 -19 -19 -19 -19 -19 -19 -19 -18 -14 -12 -12 -14 -19 -21 -17 -13 -9 -6 -5 -6 -5 -2 1 3 4 5 5 5 5 5 5 4 4 4 4 4 5 6 6 6 5
-17 -17 -17 -17 -17 -17 -17 -17 -18 -18 -19 -20 -20 -21 -21 -21 -21 -20 -22 -20 -18 -16 -15 -17 -20 -21 -19 -17 -12 -9 -8 -9 -9 -5 -2 -0 2 4 5 5 5 5 4 4 3 3 3 4 5 5 6 5
-17 -17 -17 -17 -17 -17 -17 -17 -17 -18 -19 -20 -20 -21 -21 -21 -22 -22 -22 -23 -23 -22 -21 -21 -21 -21 -21 -20 -20 -15 -12 -11 -13 -13 -10 -7 -3 0 2 4 5 5 4 4 4 3 3 4 4 4 5 5
-17 -17 -17 -17 -18 -18 -18 -18 -18 -19 -19 -20 -20 -21 -22 -22 -22 -23 -22 -23 -23 -24 -23 -24 -23 -23 -23 -22 -22 -20 -17 -14 -14 -16 -15 -14 -10 -6 -3 -1 2 4 5 4 4 4 4 4 4 4 4 5
-19 -19 -19 -19 -19 -19 -19 -20 -20 -20 -21 -21 -22 -22 -22 -22 -23 -23 -23 -23 -23 -24 -23 -23 -24 -23 -24 -24 -24 -24 -23 -19 -17 -18 -18 -19 -18 -15 -10 -7 -5 -1 3 5 4 4 4 4 4 3 4 4
-22 -21 -22 -22 -22 -22 -22 -22 -22 -22 -23 -23 -23 -24 -24 -24 -24 -24 -24 -24 -24 -24 -23 -23 -23 -23 -24 -24 -25 -25 -26 -25 -22 -22 -22 -22 -24 -22 -19 -14 -11 -10 -4 2 4 4 3 4 5 4 4 3
-24 -24 -25 -25 -24 -25 -24 -24 -24 -24 -24 -24 -24 -24 -24 -24 -24 -24 -25 -25 -25 -24 -24 -23 -22 -22 -22 -22 -23 -24 -25 -26 -25 -24 -25 -26 -27 -26 -26 -22 -16 -13 -14 -7 1 4 4 3 4 4 4 4
-25 -26 -26 -26 -26 -26 -25 -25 -24 -25 -25 -25 -25 -24 -24 -24 -24 -24 -25 -25 -26 -26 -24 -22 -21 -21 -21 -20 -21 -22 -23 -24 -25 -25 -24 -26 -27 -28 -27 -27 -22 -15 -15 -17 -8 -0 3 4 4 4 4 4
-26 -26 -27 -27 -26 -26 -25 -24 -22 -21 -22 -23 -23 -23 -23 -23 -23 -23 -23 -24 -25 -26 -25 -22 -21 -20 -19 -19 -19 -19 -20 -20 -22 -23 -23 -25 -26 -28 -28 -26 -26 -20 -17 -18 -15 -8 -1 3 4 4 4 4
-26 -26 -26 -26 -25 -25 -23 -23 -20 -17 -17 -18 -18 -20 -21 -20 -20 -21 -21 -23 -24 -25 -24 -22 -19 -18 -17 -16 -16 -17 -17 -18 -18 -19 -20 -22 -24 -24 -27 -27 -26 -24 -20 -19 -15 -10 -6 -1 3 4 4 4
-27 -26 -25 -24 -22 -23 -22 -21 -19 -14 -13 -14 -15 -17 -18 -18 -19 -19 -19 -21 -22 -24 -23 -21 -18 -15 -15 -14 -14 -14 -15 -16 -16 -16 -16 -17 -20 -21 -23 -24 -24 -23 -19 -18 -14 -7 -7 -6 0 3 3 3
-27 -27 -27 -26 -23 -21 -20 -20 -18 -14 -12 -13 -14 -15 -16 -16 -17 -17 -17 -19 -21 -22 -21 -20 -18 -14 -13 -12 -13 -13 -13 -14 -14 -14 -14 -15 -17 -18 -20 -21 -21 -22 -17 -14 -11 -6 -4 -7 -4 1 3 3
-26 -27 -29 -30 -28 -25 -22 -18 -16 -15 -13 -13 -13 -13 -14 -14 -15 -15 -16 -18 -20 -21 -20 -20 -19 -16 -14 -12 -12 -12 -12 -12 -12 -13 -13 -14 -15 -16 -17 -19 -19 -19 -17 -13 -10 -5 -3 -3 -4 -3 -0 3
-25 -27 -28 -29 -30 -31 -29 -24 -20 -17 -15 -14 -14 -13 -13 -13 -13 -14 -15 -16 -18 -19 -20 -20 -20 -19 -17 -15 -13 -12 -11 -11 -11 -12 -12 -13 -14 -15 -16 -17 -18 -18 -18 -15 -11 -7 -3 -1 -1 -3 -3 0
-24 -25 -26 -26 -28 -30 -32 -32 -28 -23 -20 -18 -16 -14 -13 -12 -12 -13 -14 -15 -16 -18 -19 -19 -20 -19 -18 -16 -15 -14 -12 -11 -11 -11 -11 -12 -13 -14 -15 -15 -16 -17 -17 -17 -14 -9 -6 -3 -0 0 -1 -1
-22 -23 -23 -24 -26 -28 -28 -29 -29 -29 -26 -22 -19 -17 -15 -13 -12 -12 -13 -14 -15 -16 -18 -19 -19 -18 -15 -14 -14 -14 -13 -12 -11 -11 -11 -12 -12 -13 -14 -14 -15 -15 -15 -16 -16 -12 -8 -5 -2 0 1 -1
-21 -22 -22 -23 -25 -26 -27 -28 -29 -30 -30 -27 -24 -21 -18 -14 -12 -11 -12 -13 -15 -16 -18 -19 -19 -18 -14 -12 -12 -12 -12 -12 -11 -11 -11 -11 -12 -13 -13 -14 -14 -13 -13 -14 -14 -13 -9 -7 -5 -2 0 1
-21 -21 -22 -24 -25 -26 -26 -27 -28 -29 -31 -31 -29 -26 -21 -16 -12 -11 -12 -13 -14 -16 -18 -19 -17 -16 -14 -13 -12 -11 -11 -11 -11 -11 -11 -11 -11 -12 -13 -13 -13 -13 -12 -13 -13 -12 -9 -6 -4 -3 -1 0
-20 -21 -22 -24 -25 -25 -26 -26 -27 -28 -29 -31 -29 -27 -26 -21 -15 -12 -12 -13 -14 -15 -18 -19 -16 -13 -13 -13 -13 -12 -11 -11 -11 -11 -11 -11 -11 -12 -12 -13 -13 -13 -12 -11 -12 -12 -9 -6 -4 -3 -2 -1
-20 -21 -22 -23 -23 -23 -23 -24 -25 -25 -26 -27 -27 -24 -23 -23 -20 -17 -15 -14 -14 -15 -17 -19 -16 -13 -12 -12 -13 -12 -11 -10 -11 -11 -11 -11 -11 -11 -12 -12 -11 -11 -11 -11 -11 -12 -9 -6 -3 -2 -2 -1
-20 -21 -21 -21 -21 -21 -20 -21 -22 -22 -22 -22 -22 -23 -23 -22 -20 -20 -19 -17 -16 -16 -16 -18 -18 -14 -12 -12 -12 -12 -11 -9 -9 -10 -11 -11 -11 -11 -11 -11 -10 -10 -11 -11 -11 -11 -11 -9 -6 -4 -3 -2
-20 -20 -20 -20 -20 -19 -19 -19 -20 -20 -20 -19 -18 -19 -24 -27 -22 -19 -19 -20 -19 -18 -18 -17 -17 -16 -14 -12 -12 -11 -11 -10 -9 -9 -10 -10 -10 -10 -10 -9 -9 -9 -10 -10 -10 -10 -11 -12 -10 -8 -7 -5
Wind_Speed
3 2 2 3 3 3 4 6 5 3 1 3 6 8 8 9 9 8 9 10 11 11 10 11 13 14 15 17 15 14 12 10 10 10 11 13 14 16 15 15 15 16 20 22 15 11 11 12 10 8 9 7
7 7 6 6 5 5 5 8 9 8 6 2 2 3 2 4 7 7 7 8 10 11 10 9 9 8 10 15 16 16 15 13 12 11 11 13 15 17 17 17 16 15 19 22 18 13 13 13 11 8 8 7
11 11 10 8 7 7 7 8 9 10 10 6 2 1 2 2 1 4 5 6 7 9 11 10 9 7 7 10 14 17 17 17 15 13 13 12 13 16 18 18 17 15 16 21 21 15 14 14 12 10 7 5
13 13 12 11 9 9 8 8 9 9 10 9 6 4 4 4 4 3 2 1 3 5 7 10 11 10 9 9 11 14 15 17 16 15 15 13 12 13 17 19 18 16 14 19 22 16 13 14 14 12 7 3
13 12 11 11 10 10 10 9 9 9 9 10 9 7 7 6 6 7 6 4 3 3 3 5 7 9 9 10 11 13 13 15 16 16 16 15 14 14 15 17 19 18 15 18 21 17 14 15 14 13 8 3
13 12 11 11 11 11 11 11 10 10 10 10 10 8 8 8 8 9 8 8 7 6 5 5 4 6 7 8 10 13 14 15 15 16 17 17 16 15 14 14 18 20 17 18 20 18 16 15 13 11 10 5
14 14 13 13 12 12 12 12 11 11 11 11 11 10 9 9 8 9 9 10 10 9 7 6 5 5 6 7 9 11 13 14 14 16 17 19 18 17 15 13 16 20 19 19 20 18 17 16 14 11 11 9
17 17 16 16 15 15 14 14 14 14 13 13 13 12 11 11 10 10 9 10 11 11 11 9 7 7 6 7 8 10 12 13 14 15 17 19 20 19 18 14 14 19 21 21 21 20 19 18 16 12 12 13
20 20 19 19 18 19 18 18 18 17 17 16 16 15 15 14 13 13 12 11 11 13 14 13 11 9 10 10 10 10 12 13 13 15 16 17 19 19 21 18 14 17 20 21 22 22 20 20 20 15 13 15
23 23 22 23 23 23 22 22 22 22 21 21 20 20 20 19 18 18 17 15 13 14 17 19 17 13 12 14 14 15 14 15 15 15 16 16 18 18 21 22 18 16 19 22 22 23 22 20 21 19 15 16
25 25 25 26 26 26 26 26 26 26 26 26 26 25 25 24 24 25 25 23 21 20 20 23 24 20 16 16 17 18 18 18 18 18 18 18 18 18 18 21 22 20 19 21 22 24 24 22 22 21 18 19
26 27 28 29 29 29 29 29 29 29 30 30 29 29 29 29 29 29 29 29 29 28 28 28 29 26 24 21 20 19 20 21 22 21 21 21 20 20 19 19 22 24 21 21 22 24 26 25 24 23 22 22
27 29 30 30 31 31 32 32 32 33 33 33 33 33 32 32 32 32 32 32 33 33 33 34 34 32 31 29 27 24 22 22 23 24 24 24 24 23 23 22 20 23 25 24 24 25 26 27 26 25 24 23
29 30 31 32 33 33 34 34 34 35 35 35 35 35 35 34 34 34 34 35 35 35 35 36 36 36 36 35 34 32 29 26 26 26 26 26 26 26 27 26 24 23 25 27 27 28 28 28 28 27 26 25
32 32 33 33 34 34 34 35 35 36 36 37 37 36 36 35 34 34 35 35 35 35 35 35 35 35 36 37 36 36 34 31 29 29 29 28 28 28 28 28 28 26 25 27 29 31 31 30 30 29 28 27
34 34 34 33 32 32 32 33 34 35 36 37 37 37 37 36 35 35 35 35 35 35 34 33 32 32 33 34 35 35 35 33 31 30 29 29 29 29 29 28 30 29 28 27 28 31 33 33 32 32 31 30
35 35 34 32 30 30 29 29 30 32 34 35 36 37 37 36 35 35 35 34 34 34 34 33 32 31 31 31 32 33 33 33 32 30 28 27 28 28 29 29 29 30 31 29 29 30 33 35 35 35 34 33
35 34 33 32 29 28 26 26 26 27 30 31 33 34 35 36 35 35 34 34 34 33 33 32 31 30 29 29 29 30 31 31 30 30 28 27 27 27 28 29 29 30 31 31 30 30 31 35 37 36 36 36
35 34 32 30 28 25 24 24 23 23 26 27 29 31 33 33 34 34 33 32 32 32 31 31 30 29 28 26 27 27 28 28 27 27 27 27 27 27 27 29 30 30 30 31 32 31 31 33 36 38 37 37
35 32 30 27 25 22 21 22 21 20 22 25 27 29 31 32 33 33 33 31 30 30 29 29 28 27 25 24 24 25 25 26 26 25 25 25 25 26 26 27 30 31 31 30 31 32 32 33 35 37 39 39
32 30 29 27 24 22 21 21 20 19 22 26 27 28 28 29 31 31 31 30 28 27 27 27 27 26 24 23 23 23 23 24 25 24 24 24 24 25 25 26 28 30 31 31 31 32 33 34 35 37 39 41
30 29 30 30 27 24 22 21 21 22 24 27 27 26 24 24 26 27 28 27 26 25 25 25 26 26 25 24 24 23 24 24 24 25 25 25 24 24 25 25 26 28 30 31 31 31 33 34 36 37 38 41
30 31 33 35 34 30 26 24 24 26 27 27 27 25 22 22 23 24 25 25 25 24 25 25 25 25 25 25 25 25 24 24 24 24 24 25 24 24 25 25 24 25 27 30 31 30 31 32 35 37 37 39
31 33 36 40 40 35 31 29 28 29 30 29 28 26 24 23 23 24 25 25 24 24 24 25 25 24 24 24 25 26 25 24 24 25 25 24 24 24 24 25 24 24 25 27 31 31 30 30 32 36 38 38
31 33 38 42 41 36 32 31 31 31 31 31 30 28 26 26 25 25 26 26 25 24 24 25 25 24 23 23 24 26 26 25 25 25 25 25 24 24 24 24 24 22 22 24 28 30 30 30 31 33 35 39
30 33 38 42 41 36 33 32 32 32 32 32 32 30 27 27 26 26 28 28 26 25 24 24 24 24 23 24 24 25 26 26 27 27 26 25 25 24 24 24 23 20 20 21 23 24 27 29 30 32 34 37
31 33 37 43 42 37 35 34 33 32 31 31 32 31 28 26 24 25 29 29 27 25 23 22 22 23 24 24 24 25 26 27 27 27 25 25 24 24 24 24 23 20 19 19 19 18 21 23 24 27 32 37
33 35 40 43 41 37 37 38 37 35 33 31 30 30 29 27 25 26 29 30 28 25 23 22 22 23 24 24 23 24 25 27 27 27 25 25 24 24 25 25 24 23 20 18 16 15 17 18 18 21 27 33
37 39 40 40 38 37 38 40 41 39 37 35 33 31 30 29 28 29 30 30 29 25 24 24 23 23 25 25 24 23 24 26 27 27 26 25 25 25 25 25 24 23 21 20 18 16 16 15 15 17 19 22
38 39 39 37 36 35 37 39 40 39 38 38 36 35 34 32 31 30 30 32 32 28 26 26 25 25 26 27 25 24 24 25 25 26 26 26 25 25 25 25 25 25 23 22 21 20 20 19 18 19 17 15
38 39 38 36 35 35 36 36 38 38 37 35 33 36 39 38 35 33 32 33 33 31 28 26 26 26 27 28 27 26 26 26 25 25 25 26 25 25 24 24 25 26 25 24 23 22 22 23 24 25 24 21
Wind_Direction
102 72 16 341 314 298 325 344 358 4 312 212 193 186 194 201 205 217 231 242 246 252 246 231 231 237 229 220 220 220 217 216 233 245 250 255 257 261 257 254 248 228 236 245 242 248 266 278 288 295 323 307
89 77 61 44 23 9 3 4 11 16 19 5 230 189 167 192 199 205 221 237 247 255 257 250 243 248 240 230 227 222 218 214 219 233 244 254 259 262 260 258 258 243 236 244 242 241 264 273 277 286 314 319
80 74 65 54 43 33 29 28 28 28 30 29 355 343 42 46 169 196 213 228 235 247 256 259 258 256 246 240 232 227 225 220 217 222 229 246 260 262 262 261 262 256 244 246 245 241 259 266 270 282 299 315
71 67 62 58 54 49 43 41 41 42 41 40 38 32 33 34 34 47 45 280 247 250 256 256 258 259 255 248 237 236 236 226 221 222 224 230 241 255 263 263 261 262 254 243 241 238 244 253 265 278 284 290
61 59 58 56 55 53 47 44 42 44 46 45 46 44 44 46 42 40 42 35 17 351 325 286 269 265 262 257 248 247 249 239 229 227 227 226 228 237 251 259 260 262 260 242 240 238 228 235 250 265 273 269
47 47 45 43 43 42 37 36 34 34 36 38 39 40 40 41 43 38 36 37 30 18 5 352 322 294 284 278 268 257 256 253 242 234 232 230 231 233 237 251 259 259 260 255 251 240 220 220 229 248 269 267
30 30 28 26 26 26 23 22 22 22 21 23 26 25 23 23 27 27 26 27 23 19 9 352 332 310 302 295 291 282 272 268 256 245 240 235 234 235 238 244 256 260 258 258 257 246 229 221 218 231 264 267
16 15 13 12 13 12 9 9 9 8 7 6 8 9 7 5 3 2 359 2 4 6 6 354 332 309 298 290 293 298 293 287 273 259 254 248 239 233 237 241 255 263 260 258 256 257 250 233 220 221 255 264
6 4 2 2 2 1 359 359 359 357 356 355 354 353 353 351 349 348 341 333 333 339 346 348 341 323 309 301 297 304 306 303 291 276 272 265 255 245 239 239 252 261 260 261 258 261 259 242 228 220 243 257
358 357 355 354 353 352 351 351 352 351 349 349 347 346 344 342 340 339 338 331 322 320 324 330 335 334 325 315 307 306 311 312 306 292 286 279 273 268 251 239 243 254 258 261 262 262 259 252 241 223 232 255
353 352 350 349 348 346 345 345 345 345 345 346 344 343 341 340 338 336 336 335 330 324 319 320 324 326 326 322 315 309 309 312 312 305 297 291 284 282 268 250 242 245 253 258 263 265 261 258 251 234 236 257
349 348 348 346 345 343 341 340 340 340 341 341 341 340 339 337 336 334 333 333 334 332 328 324 321 320 319 317 314 310 307 308 309 307 302 299 292 285 281 271 254 244 244 252 258 263 264 261 256 248 246 253
346 345 344 343 342 341 339 338 337 337 336 337 337 337 337 335 334 332 331 330 329 329 328 326 323 320 317 314 311 307 304 301 300 302 300 298 295 290 286 284 275 257 244 243 250 256 262 263 259 256 250 249
347 344 343 342 340 339 337 336 335 335 334 334 334 334 334 334 333 332 330 329 328 326 325 324 322 320 318 316 313 308 305 300 295 295 296 295 294 291 287 285 285 278 260 246 245 249 255 259 260 258 254 251
349 347 345 343 341 339 336 335 333 332 331 331 331 331 331 331 331 330 329 328 327 326 324 323 321 319 318 317 315 312 308 304 298 295 295 294 293 288 285 283 282 284 279 263 250 246 249 254 256 256 255 253
348 347 346 344 342 339 336 334 331 329 329 328 328 327 327 327 327 327 327 326 325 323 322 320 318 315 314 313 313 311 308 306 301 297 294 292 291 288 283 279 278 278 280 276 264 252 247 249 252 252 252 253
346 346 344 343 340 337 333 330 328 326 325 324 324 323 323 322 322 322 322 322 321 319 316 314 312 310 309 308 307 307 305 303 300 296 292 289 286 284 280 274 270 271 273 275 272 264 253 247 247 250 249 248
344 343 341 340 338 333 328 323 320 318 318 319 319 318 318 318 317 317 317 317 315 313 310 308 306 304 302 301 300 300 299 298 296 293 289 285 280 276 274 270 264 261 264 267 267 267 263 253 245 246 248 246
341 339 338 336 334 328 320 314 311 310 311 312 311 312 312 312 312 312 312 311 310 307 303 300 297 296 295 294 292 292 292 292 291 290 287 283 279 272 266 263 260 256 255 257 259 260 262 261 252 244 245 247
338 335 332 330 326 320 310 303 301 304 305 302 301 304 306 307 307 307 307 306 304 300 296 292 288 287 287 286 284 284 284 285 286 286 286 283 279 274 266 258 255 254 251 250 251 252 253 258 258 250 244 244
333 331 330 328 322 314 304 295 290 291 290 291 295 300 304 306 306 306 305 304 300 295 290 286 282 279 279 279 277 276 276 278 281 282 283 284 282 278 272 263 254 252 252 250 247 246 247 249 253 254 249 245
329 330 333 333 328 317 305 292 283 283 284 287 293 298 303 306 305 305 304 303 299 293 288 283 281 278 277 276 274 272 272 274 277 279 281 283 284 282 278 273 263 256 253 252 250 246 244 244 245 250 252 249
327 331 336 338 335 327 315 302 291 288 290 293 296 296 297 298 299 300 299 299 297 293 289 284 281 279 277 275 275 273 271 272 273 276 279 280 282 282 282 279 274 266 258 254 254 251 247 244 241 242 246 250
329 331 336 339 339 333 324 314 304 297 296 297 298 296 293 292 293 295 292 292 293 291 289 285 281 278 276 274 272 272 270 270 270 272 274 276 279 280 280 281 279 276 269 261 257 256 254 249 244 241 240 244
330 331 334 337 337 334 326 319 312 304 299 296 295 294 294 291 290 290 288 287 287 286 284 282 280 276 274 273 270 269 268 267 267 267 269 271 274 276 277 279 280 280 278 271 263 259 259 256 250 245 241 240
328 329 330 332 333 330 326 323 319 313 307 301 295 292 291 290 288 285 284 284 284 283 281 279 277 274 273 273 271 267 265 264 263 263 264 266 268 270 273 274 276 278 278 276 272 269 266 262 256 250 244 240
325 324 325 328 328 327 326 325 323 320 315 309 301 293 288 283 279 278 278 280 281 281 279 277 275 274 274 273 271 269 266 263 261 260 260 262 265 266 268 269 270 271 273 274 276 275 269 264 261 256 249 242
325 323 324 325 324 322 323 323 324 323 320 317 310 299 290 280 273 272 273 274 276 278 279 276 273 274 275 273 272 272 270 267 263 260 258 258 261 263 264 265 267 267 265 265 267 267 266 264 262 258 254 248
325 324 324 324 321 320 321 322 324 325 323 322 317 308 297 287 280 276 274 271 270 274 278 276 273 273 274 272 270 272 272 270 265 261 259 257 257 258 259 261 261 260 256 255 256 255 258 258 254 252 254 255
323 323 322 321 318 317 318 320 323 325 323 320 316 310 302 293 286 283 280 275 270 270 272 274 272 271 271 270 268 268 269 268 263 259 258 256 255 254 254 255 255 252 250 250 249 248 249 247 248 255 261 264
321 319 318 316 313 313 314 317 319 319 318 313 308 303 301 296 290 286 286 281 275 271 268 267 267 267 267 268 267 267 267 265 261 258 255 253 253 252 249 250 251 251 249 247 245 244 248 247 246 253 262 269
Height
1526 1527 1527 1526 1525 1525 1524 1524 1522 1522 1521 1521 1521 1521 1522 1523 1524 1525 1526 1527 1528 1528 1529 1529 1530 1531 1531 1532 1533 1534 1534 1535 1537 1539 1539 1539 1539 1540 1541 1541 1542 1542 1541 1540 1542 1544 1544 1545 1546 1547 1547 1547
1526 1526 1526 1526 1525 1524 1523 1523 1523 1522 1521 1521 1521 1521 1521 1522 1522 1523 1524 1526 1527 1528 1528 1528 1529 1529 1530 1531 1531 1532 1532 1533 1534 1536 1538 1539 1538 1539 1539 1540 1540 1541 1540 1539 1540 1543 1544 1544 1545 1546 1547 1547
1526 1526 1526 1526 1525 1524 1524 1524 1523 1523 1522 1521 1521 1521 1521 1521 1520 1521 1523 1524 1525 1526 1527 1527 1528 1528 1529 1529 1529 1530 1531 1532 1532 1533 1534 1536 1537 1537 1537 1538 1539 1539 1540 1539 1539 1541 1542 1543 1544 1545 1546 1547
1527 1526 1526 1525 1525 1524 1524 1524 1523 1523 1522 1521 1520 1520 1521 1520 1520 1520 1521 1522 1523 1524 1526 1526 1527 1527 1527 1527 1528 1529 1530 1530 1531 1532 1532 1533 1535 1535 1535 1536 1537 1538 1539 1538 1538 1539 1541 1542 1543 1544 1546 1546
1526 1526 1525 1525 1524 1524 1524 1524 1523 1522 1521 1520 1520 1520 1520 1520 1520 1521 1521 1522 1522 1523 1524 1525 1525 1526 1526 1526 1527 1527 1528 1529 1529 1530 1530 1531 1532 1532 1533 1534 1535 1536 1537 1537 1537 1538 1539 1541 1543 1543 1544 1545
1525 1525 1525 1524 1523 1523 1523 1522 1522 1521 1520 1519 1519 1519 1520 1520 1521 1521 1521 1521 1521 1522 1523 1523 1524 1524 1524 1525 1525 1526 1526 1527 1528 1528 1529 1529 1530 1530 1531 1532 1533 1534 1535 1535 1536 1537 1538 1540 1541 1542 1543 1544
1525 1524 1524 1523 1523 1522 1522 1521 1520 1519 1519 1519 1518 1518 1519 1520 1520 1520 1520 1520 1520 1521 1521 1522 1522 1522 1522 1522 1523 1524 1524 1525 1525 1526 1527 1528 1528 1529 1530 1530 1531 1533 1534 1534 1535 1536 1537 1539 1540 1541 1542 1544
1524 1523 1523 1522 1522 1521 1521 1520 1519 1519 1518 1518 1518 1518 1518 1519 1519 1519 1519 1519 1520 1520 1520 1521 1521 1521 1521 1521 1521 1522 1523 1523 1523 1524 1525 1525 1526 1527 1528 1529 1530 1531 1532 1532 1534 1535 1536 1537 1539 1540 1541 1543
1523 1523 1522 1521 1521 1520 1520 1519 1519 1518 1518 1517 1517 1517 1517 1517 1517 1518 1518 1519 1518 1518 1518 1519 1520 1519 1519 1519 1520 1521 1521 1522 1522 1522 1523 1523 1524 1525 1526 1527 1528 1528 1529 1530 1532 1534 1534 1535 1537 1538 1540 1542
1523 1522 1521 1520 1520 1519 1519 1518 1518 1517 1517 1517 1516 1516 1516 1516 1516 1516 1517 1518 1517 1517 1517 1518 1518 1517 1517 1518 1518 1519 1520 1520 1521 1521 1522 1522 1522 1524 1525 1525 1526 1527 1528 1528 1530 1532 1532 1533 1535 1536 1538 1540
1522 1521 1520 1519 1518 1518 1517 1517 1516 1516 1516 1515 1515 1515 1515 1514 1514 1514 1514 1515 1515 1516 1517 1517 1516 1515 1515 1516 1517 1517 1518 1518 1519 1520 1521 1521 1521 1522 1523 1524 1524 1525 1526 1527 1528 1529 1530 1532 1533 1535 1536 1538
1521 1520 1519 1518 1517 1516 1516 1515 1515 1514 1514 1514 1514 1513 1513 1512 1512 1512 1512 1512 1512 1513 1514 1514 1512 1511 1512 1513 1515 1515 1516 1516 1517 1518 1519 1519 1520 1520 1520 1521 1522 1523 1524 1525 1526 1527 1528 1529 1531 1533 1534 1536
1520 1519 1518 1517 1516 1515 1514 1513 1513 1512 1512 1511 1511 1511 1511 1510 1510 1510 1510 1509 1509 1509 1509 1508 1507 1507 1508 1510 1511 1513 1513 1514 1514 1515 1516 1516 1517 1518 1519 1519 1520 1521 1521 1523 1524 1525 1525 1527 1529 1531 1532 1534
1518 1517 1517 1516 1515 1514 1513 1512 1511 1510 1509 1509 1509 1508 1508 1508 1508 1508 1507 1507 1507 1506 1505 1505 1504 1504 1504 1506 1507 1509 1510 1511 1512 1512 1513 1513 1514 1515 1516 1517 1517 1518 1519 1520 1521 1522 1523 1524 1526 1528 1530 1531
1518 1517 1515 1514 1513 1512 1511 1510 1509 1508 1507 1507 1506 1506 1506 1506 1506 1505 1505 1505 1504 1504 1504 1503 1503 1503 1503 1503 1503 1504 1506 1507 1509 1509 1510 1510 1511 1512 1513 1514 1514 1515 1517 1518 1518 1519 1520 1522 1524 1525 1527 1529
1517 1515 1514 1513 1512 1510 1509 1508 1507 1506 1505 1505 1504 1503 1503 1503 1503 1503 1503 1503 1502 1502 1502 1502 1501 1501 1501 1501 1500 1500 1501 1502 1504 1506 1507 1507 1508 1508 1509 1510 1511 1512 1513 1515 1516 1517 1517 1519 1521 1522 1524 1526
1516 1514 1513 1511 1510 1509 1508 1507 1505 1504 1503 1502 1501 1501 1500 1501 1501 1501 1501 1500 1500 1500 1499 1499 1499 1499 1499 1499 1498 1497 1497 1498 1499 1500 1502 1504 1504 1505 1505 1506 1507 1508 1509 1511 1512 1513 1515 1515 1517 1519 1521 1522
1514 1513 1511 1510 1509 1507 1506 1505 1504 1503 1501 1499 1498 1498 1497 1497 1497 1498 1498 1498 1498 1498 1497 1497 1496 1496 1496 1496 1496 1495 1494 1494 1494 1496 1497 1499 1500 1501 1502 1502 1503 1504 1505 1506 1508 1510 1511 1512 1513 1515 1517 1519
1512 1510 1509 1508 1506 1505 1505 1504 1503 1501 1500 1498 1496 1495 1494 1494 1494 1494 1495 1495 1495 1495 1494 1494 1494 1493 1494 1493 1493 1492 1492 1491 1491 1491 1493 1494 1495 1497 1498 1498 1499 1499 1500 1502 1503 1505 1507 1508 1509 1510 1512 1514
1510 1509 1508 1506 1505 1504 1502 1501 1501 1500 1498 1496 1494 1492 1491 1491 1491 1491 1491 1492 1492 1492 1491 1491 1490 1490 1491 1491 1490 1490 1489 1489 1488 1488 1489 1490 1491 1492 1493 1495 1495 1496 1496 1497 1498 1500 1502 1504 1505 1506 1508 1510
1509 1508 1506 1504 1503 1501 1500 1499 1498 1496 1495 1493 1491 1490 1489 1488 1487 1487 1487 1488 1488 1488 1488 1487 1487 1487 1488 1488 1487 1487 1487 1486 1486 1485 1486 1486 1487 1488 1489 1490 1491 1492 1492 1492 1493 1495 1497 1499 1501 1502 1504 1505
1507 1506 1505 1503 1501 1499 1498 1496 1495 1493 1491 1490 1490 1488 1486 1485 1484 1484 1484 1484 1485 1485 1485 1484 1484 1484 1484 1484 1484 1484 1484 1483 1483 1483 1483 1483 1484 1484 1485 1486 1487 1488 1488 1488 1489 1490 1492 1494 1495 1497 1499 1501
1505 1503 1502 1500 1498 1497 1495 1493 1491 1490 1488 1488 1487 1486 1484 1482 1481 1480 1481 1481 1481 1482 1481 1481 1480 1480 1481 1481 1481 1481 1480 1480 1480 1480 1480 1480 1481 1481 1481 1482 1483 1484 1485 1485 1485 1485 1487 1489 1490 1492 1494 1496
1502 1500 1498 1496 1494 1493 1491 1489 1487 1486 1484 1484 1483 1483 1481 1479 1477 1477 1477 1478 1478 1478 1478 1477 1477 1477 1477 1477 1477 1477 1477 1477 1477 1477 1477 1477 1477 1478 1478 1479 1479 1480 1481 1481 1481 1481 1482 1483 1485 1486 1488 1490
1500 1498 1495 1493 1492 1490 1488 1486 1483 1481 1480 1479 1479 1479 1478 1476 1474 1473 1473 1475 1475 1475 1475 1474 1474 1474 1473 1474 1474 1473 1473 1473 1473 1473 1474 1474 1474 1475 1475 1475 1476 1477 1478 1478 1478 1478 1478 1479 1480 1481 1482 1484
1497 1495 1493 1491 1489 1488 1486 1484 1481 1478 1476 1475 1474 1474 1474 1472 1471 1470 1469 1471 1471 1471 1471 1471 1470 1470 1470 1470 1470 1470 1469 1469 1469 1470 1470 1471 1471 1472 1472 1472 1473 1475 1475 1475 1475 1476 1476 1475 1475 1476 1477 1478
1495 1493 1491 1489 1487 1485 1483 1481 1478 1475 1473 1471 1470 1470 1469 1468 1467 1465 1465 1467 1468 1467 1467 1467 1467 1466 1466 1466 1466 1466 1466 1466 1466 1466 1467 1468 1468 1469 1469 1469 1470 1472 1473 1473 1473 1474 1473 1472 1472 1472 1471 1472
1492 1490 1488 1486 1484 1483 1481 1478 1475 1471 1468 1467 1466 1465 1464 1463 1462 1461 1461 1462 1463 1463 1463 1463 1463 1462 1462 1462 1462 1462 1462 1462 1462 1463 1463 1464 1465 1465 1466 1466 1467 1469 1470 1470 1471 1472 1471 1471 1471 1469 1468 1468
1487 1485 1483 1481 1480 1479 1477 1473 1469 1466 1463 1462 1461 1460 1459 1458 1457 1456 1456 1457 1458 1459 1459 1459 1459 1458 1458 1458 1458 1458 1458 1458 1459 1459 1460 1461 1462 1462 1462 1463 1463 1465 1466 1467 1468 1469 1469 1469 1469 1468 1467 1467
1484 1481 1479 1477 1475 1474 1471 1467 1464 1462 1460 1459 1457 1456 1454 1452 1451 1451 1452 1452 1453 1454 1455 1455 1455 1454 1454 1454 1454 1455 1455 1455 1455 1456 1457 1458 1458 1459 1459 1459 1459 1461 1462 1464 1465 1465 1466 1467 1466 1465 1466 1466
1480 1478 1476 1474 1472 1470 1466 1463 1460 1459 1459 1457 1455 1452 1449 1447 1446 1447 1447 1447 1447 1449 1450 1450 1450 1450 1450 1450 1451 1451 1451 1452 1452 1452 1454 1454 1455 1455 1456 1457 1456 1457 1459 1460 1461 1462 1462 1463 1464 1464 1464 1464